Home   Weather   Huntsville   Past weeks

Flag for USA Past Weather in Huntsville, Alabama, USA — Yesterday and Last 2 Weeks

Now
57 °F

Mostly cloudy.


Feels Like: 55 °F
Forecast: 55 / 61 °F
Wind: 8 mph from Northwest

Location: Huntsville International / Jones Field

Current Time: Apr 23, 2017 at 11:28:46 am

Latest Report: Apr 23, 2017 at 10:53 am


Visibility: 10 mi

Pressure: 29.82 "Hg

Humidity: 90%

Dew Point: 54 °F

Location of HuntsvilleLocation

Past Weather in Huntsville — Graph

°F

Huntsville Temperature Yesterday

Maximum temperature yesterday: 79 °F (at 2:53 pm)
Minimum temperature yesterday: 62 °F (at 9:38 pm)
Average temperature yesterday: 68 °F

High & Low Weather Summary for the Past Weeks

 TemperatureHumidityPressure
High89 °F (Apr 14, 2:53 pm)100% (Apr 22, 8:58 am)30.27 "Hg (Apr 22, 8:58 am)
Low46 °F (Apr 9, 5:53 am)21% (Apr 9, 4:53 pm)29.74 "Hg (Apr 22, 5:12 pm)
Average70 °F65%30.09 "Hg
* Reported Apr 8 9:53 am — Apr 23 9:53 am, Huntsville, Weather by CustomWeather, © 2017

Note: Actual official high and low records may vary slightly from our data, if they occured in-between our weather recording intervals... More about our weather records

Advertising

Huntsville Weather History for the Previous 24 Hours

Scroll right to see more
 ConditionsComfort  
Time TempWeatherWind HumidityBarometerVisibility
9:53 am
Sun, Apr 23
57 °FMostly cloudy.7 mph93%29.81 "Hg10 mi
9:30 am57 °FLow clouds.8 mph90%29.83 "Hg10 mi
9:13 am58 °FMore clouds than sun.5 mph90%29.83 "Hg10 mi
8:53 am56 °FMostly cloudy.No wind93%29.80 "Hg10 mi
7:53 am55 °FFog.7 mph96%29.80 "Hg2 mi
6:53 am55 °FLight rain. Fog.6 mph96%29.79 "Hg2 mi
5:53 am55 °FFog.6 mph100%29.77 "Hg4 mi
5:28 am55 °FMostly cloudy.7 mph100%29.78 "Hg10 mi
5:03 am56 °FMostly cloudy.5 mph97%29.78 "Hg10 mi
4:53 am56 °FMostly cloudy.6 mph97%29.77 "Hg10 mi
4:22 am56 °FMostly cloudy.8 mph97%29.78 "Hg10 mi
3:53 am56 °FFog.9 mph100%29.77 "Hg5 mi
2:53 am59 °FFog.7 mph100%29.76 "Hg5 mi
1:53 am60 °FFog.7 mph100%29.76 "Hg6 mi
12:53 am62 °FLow clouds.9 mph96%29.78 "Hg10 mi
11:53 pm
Sat, Apr 22
63 °FLow clouds.6 mph97%29.80 "Hg10 mi
11:18 pm64 °FLight rain. Low clouds.5 mph97%29.82 "Hg10 mi
11:06 pm64 °FLight rain. Mostly cloudy.No wind97%29.82 "Hg10 mi
10:13 pm64 °FLight rain. Mostly cloudy.6 mph97%29.84 "Hg10 mi
9:53 pm63 °FThunderstorms. Overcast.5 mph97%29.83 "Hg10 mi
9:38 pm62 °FThunderstorms. Overcast.5 mph100%29.84 "Hg10 mi
9:04 pm63 °FThundershowers. Overcast.7 mph97%29.85 "Hg9 mi
8:53 pm63 °FHeavy rain. Fog.5 mph97%29.83 "Hg4 mi
7:53 pm63 °FLight rain. Overcast.3 mph97%29.83 "Hg10 mi
6:53 pm64 °FRain. More clouds than sun.7 mph94%29.83 "Hg7 mi
6:17 pm64 °FLight rain. Mostly cloudy.9 mph97%29.82 "Hg10 mi
6:08 pm64 °FThundershowers. Mostly cloudy.14 mph94%29.82 "Hg7 mi
5:30 pm70 °FThunderstorms. Broken clouds.10 mph87%29.79 "Hg9 mi
5:12 pm72 °FThunderstorms. Broken clouds.12 mph81%29.74 "Hg10 mi
5:03 pm72 °FThundershowers. Broken clouds.14 mph84%29.75 "Hg10 mi
4:53 pm72 °FThunderstorms. Broken clouds.7 mph81%29.76 "Hg10 mi
4:35 pm77 °FThunderstorms. More clouds than sun.15 mph64%29.76 "Hg10 mi
3:53 pm78 °FCloudy.10 mph62%29.75 "Hg10 mi
2:53 pm79 °FPartly sunny.12 mph62%29.78 "Hg10 mi
1:53 pm77 °FOvercast.10 mph69%29.83 "Hg10 mi
1:01 pm76 °FMostly cloudy.12 mph72%29.86 "Hg10 mi
11:53 am73 °FOvercast.13 mph81%29.87 "Hg10 mi
Weather by CustomWeather, © 2017

See weather overviewHow to use our weather pages